Waarnemingen

Advertentie
Mijn weer
F16-A, Nederland (6206): temperatuur & dauwpunt: 18.04.2018 10:00:00 - 24.04.2018 10:00:00 (CEST)F16-A, Nederland (6206): windsnelheid & windstoten: 18.04.2018 10:00:00 - 24.04.2018 10:00:00 (CEST)F16-A, Nederland (6206): windrichting: 18.04.2018 10:00:00 - 24.04.2018 10:00:00 (CEST)F16-A, Nederland (6206): luchtdruk: 18.04.2018 10:00:00 - 24.04.2018 10:00:00 (CEST)F16-A, Nederland (6206): zicht: 18.04.2018 10:00:00 - 24.04.2018 10:00:00 (CEST)
Datum & Tijd tt [°C] td [°C] ff [km/u] ff [kn] fx [km/u] fx [kn] dd ppp [hPa] vv [km]
24.04.2018 10:00:00 8,5 5,6 39 21 40 21 WZW 1010,7 10
24.04.2018 09:00:00 8,6 5,8 39 21 40 21 WZW 1010,6 10
24.04.2018 08:00:00 8,3 6,7 39 21 43 23 WZW 1010,1 10
24.04.2018 07:00:00 8,7 7,2 46 25 50 27 WZW 1009,1 10
24.04.2018 06:00:00 9,3 7,5 50 27 54 29 WZW 1008,6 10
24.04.2018 05:00:00 8,9 7,2 48 26 47 25 ZW 1008,6 10
24.04.2018 04:00:00 9,2 6,9 40 21 50 27 ZW 1008,8 16
24.04.2018 03:00:00 9,6 6,7 52 28 50 27 ZW 1008,8 10
24.04.2018 02:00:00 9,3 6,8 48 26 50 27 ZZW 1009,2 10
24.04.2018 01:00:00 8,6 7,3 42 23 47 25 ZZW 1010,2 10
24.04.2018 00:00:00 8,5 7,2 42 23 47 25 ZZW 1010,9 10
23.04.2018 23:00:00 8,6 7,1 52 28 50 27 ZZW 1011,4 10
23.04.2018 22:00:00 8,9 6,0 46 25 50 27 ZZW 1012,0 10
23.04.2018 21:00:00 8,5 6,2 41 22 40 21 ZZW 1012,4 10
23.04.2018 20:00:00 8,8 5,9 29 16 36 19 ZZW 1012,6 21
23.04.2018 19:00:00 9,3 5,7 39 21 36 19 ZW 1012,8 10
23.04.2018 18:00:00 9,1 5,9 32 18 36 19 ZW 1013,0 21
23.04.2018 17:00:00 9,1 5,9 32 18 40 21 WZW 1013,0 16
23.04.2018 16:00:00 8,8 6,5 32 18 36 19 WZW 1013,1 15
23.04.2018 15:00:00 8,8 6,4 32 18 40 21 WZW 1013,2 16
23.04.2018 14:00:00 8,8 6,5 37 20 - - WZW 1012,8 10
23.04.2018 13:00:00 8,6 6,6 32 18 40 21 WZW 1012,2 16
23.04.2018 12:00:00 8,5 6,7 32 18 40 21 WZW 1011,9 17
23.04.2018 11:00:00 8,6 6,7 32 18 40 21 WZW 1011,4 18
23.04.2018 10:00:00 8,8 6,7 39 21 40 21 WZW 1010,8 10
23.04.2018 09:00:00 8,6 6,5 32 18 36 19 WZW 1010,3 18
23.04.2018 08:00:00 8,8 6,6 32 18 40 21 WZW 1009,6 16
23.04.2018 07:00:00 9,1 7,0 29 16 36 19 WZW 1009,0 12
23.04.2018 06:00:00 9,0 6,9 26 14 29 16 W 1009,1 10
23.04.2018 05:00:00 9,1 7,8 25 14 29 16 WZW 1009,2 8
23.04.2018 04:00:00 9,1 7,9 25 14 32 18 W 1008,9 7
23.04.2018 03:00:00 9,3 8,2 18 10 22 12 W 1008,4 9
23.04.2018 02:00:00 9,0 8,2 8 4 25 14 W 1008,4 6
23.04.2018 01:00:00 9,0 8,6 7 4 18 10 NW 1007,7 9
23.04.2018 00:00:00 9,5 8,9 21 11 25 14 NNO 1007,3 6
22.04.2018 23:00:00 9,4 8,8 24 13 25 14 NNO 1007,3 4,8
22.04.2018 22:00:00 9,6 8,6 42 23 54 29 NW 1007,4 7
22.04.2018 21:00:00 10,0 8,7 24 13 25 14 WZW 1006,4 4,9
22.04.2018 20:00:00 10,9 8,9 25 14 32 18 ZW 1006,6 7
22.04.2018 19:00:00 11,2 9,0 32 18 36 19 ZZW 1006,7 7
22.04.2018 18:00:00 11,6 9,2 32 18 40 21 Z 1007,0 10
22.04.2018 17:00:00 10,9 8,8 40 21 47 25 ZZO 1007,6 12
22.04.2018 16:00:00 10,0 8,2 52 28 50 27 ZZO 1008,0 10
22.04.2018 15:00:00 9,8 8,0 46 25 50 27 ZZO 1008,6 10
22.04.2018 14:00:00 9,8 7,8 44 24 50 27 ZO 1009,3 10
22.04.2018 13:00:00 10,0 7,5 54 29 50 27 ZO 1009,8 10
22.04.2018 12:00:00 9,9 7,3 48 26 47 25 ZO 1010,6 10
22.04.2018 11:00:00 9,5 7,1 50 27 47 25 ZO 1010,7 10
22.04.2018 10:00:00 9,4 7,1 48 26 50 27 ZO 1011,8 10
22.04.2018 09:00:00 9,6 6,9 52 28 50 27 ZO 1012,7 10
22.04.2018 08:00:00 9,5 7,0 50 27 50 27 ZO 1013,2 10
22.04.2018 07:00:00 9,5 7,1 43 23 54 29 ZO 1013,6 18
22.04.2018 06:00:00 9,6 7,4 68 37 65 35 ZO 1014,2 10
22.04.2018 05:00:00 9,3 7,3 43 23 47 25 ZO 1014,4 13
22.04.2018 04:00:00 9,5 6,8 36 19 40 21 ZO 1016,0 23
22.04.2018 03:00:00 9,5 6,1 44 24 40 21 ZO 1016,4 10
22.04.2018 02:00:00 9,4 6,3 39 21 40 21 ZO 1017,0 10
22.04.2018 01:00:00 9,6 6,2 42 23 40 21 ZO 1017,9 10
22.04.2018 00:00:00 9,7 6,2 41 22 40 21 ZO 1018,0 10
21.04.2018 23:00:00 9,7 6,4 34 18 32 18 ZO 1018,9 10
21.04.2018 22:00:00 9,6 6,9 24 13 25 14 OZO 1019,8 10
21.04.2018 21:00:00 9,6 7,0 21 11 18 10 OZO 1020,4 10
21.04.2018 20:00:00 9,2 7,3 18 10 18 10 OZO 1020,7 33
21.04.2018 19:00:00 9,2 7,7 14 8 14 8 OZO 1021,2 24
21.04.2018 18:00:00 9,3 7,3 11 6 14 8 OZO 1021,8 27
21.04.2018 17:00:00 9,4 7,7 11 6 18 10 O 1022,4 26
21.04.2018 16:00:00 9,5 7,5 7 4 14 8 ONO 1023,0 24
21.04.2018 15:00:00 9,7 7,1 9 5 14 8 NO 1023,5 10
21.04.2018 14:00:00 10,2 6,9 2 1 22 12 - 1023,8 10
21.04.2018 13:00:00 10,2 5,7 13 7 22 12 - 1024,1 10
21.04.2018 12:00:00 9,9 5,0 11 6 22 12 NNW 1024,4 10
21.04.2018 11:00:00 9,3 6,0 11 6 11 6 NNW 1024,5 10
21.04.2018 10:00:00 9,4 6,5 13 7 14 8 NNW 1024,3 10
21.04.2018 09:00:00 9,3 7,1 13 7 14 8 NNW 1024,0 10
21.04.2018 08:00:00 9,0 7,3 13 7 18 10 NW 1023,9 10
21.04.2018 07:00:00 8,5 7,5 18 10 22 12 WNW 1023,5 24
21.04.2018 06:00:00 9,1 7,6 18 10 22 12 NW 1023,1 25
21.04.2018 05:00:00 8,4 7,4 14 8 18 10 NW 1023,2 24
21.04.2018 04:00:00 8,4 7,3 14 8 18 10 NW 1023,4 24
21.04.2018 03:00:00 8,6 7,2 14 8 14 8 NNW 1023,5 29
21.04.2018 02:00:00 8,9 7,1 18 10 18 10 NNO 1023,5 10
21.04.2018 01:00:00 8,6 7,1 26 14 29 16 NNO 1023,5 10
21.04.2018 00:00:00 8,4 7,5 28 15 25 14 NNW 1023,4 10
20.04.2018 23:00:00 8,5 7,8 22 12 25 14 N 1023,4 10
20.04.2018 22:00:00 8,4 7,6 22 12 29 16 NNW 1023,4 27
20.04.2018 21:00:00 8,7 7,6 26 14 25 14 NW 1022,8 10
20.04.2018 20:00:00 9,3 7,7 22 12 25 14 NW 1022,2 20
20.04.2018 19:00:00 10,0 7,9 22 12 25 14 NNW 1022,3 10
20.04.2018 18:00:00 9,6 7,9 22 12 25 14 NNW 1022,3 15
20.04.2018 17:00:00 9,6 7,9 25 14 25 14 NNW 1022,1 11
20.04.2018 16:00:00 10,0 7,6 18 10 22 12 NW 1022,2 8
20.04.2018 15:00:00 10,4 7,4 14 8 18 10 NW 1022,1 5
20.04.2018 14:00:00 10,0 7,4 21 11 25 14 WNW 1022,0 4,8
20.04.2018 13:00:00 10,1 7,5 16 9 25 14 ZW 1021,9 5
20.04.2018 12:00:00 10,6 7,1 4 2 7 4 WZW 1021,4 5
20.04.2018 11:00:00 12,2 7,6 13 7 22 12 - 1021,0 5
20.04.2018 10:00:00 12,1 7,3 16 9 22 12 WNW 1021,0 5
20.04.2018 09:00:00 12,6 7,3 18 10 22 12 WNW 1021,1 6
20.04.2018 08:00:00 11,8 7,2 11 6 22 12 W 1021,4 6
20.04.2018 07:00:00 13,5 7,1 18 10 22 12 WZW 1021,2 8
20.04.2018 06:00:00 12,7 8,5 9 5 25 14 ZZW 1021,2 8
20.04.2018 05:00:00 13,2 8,9 4 2 18 10 W 1021,3 9
20.04.2018 04:00:00 12,7 9,1 8 4 18 10 - 1021,8 6
20.04.2018 03:00:00 13,1 8,9 11 6 18 10 WNW 1022,2 7
20.04.2018 02:00:00 13,7 9,0 4 2 11 6 W 1022,8 10
20.04.2018 01:00:00 15,6 9,1 7 4 18 10 W 1023,1 10
20.04.2018 00:00:00 11,6 8,2 11 6 22 12 NNW 1023,6 10
19.04.2018 23:00:00 14,9 9,0 7 4 22 12 W 1024,1 10
19.04.2018 22:00:00 18,6 9,5 24 13 22 12 ZO 1023,9 10
19.04.2018 21:00:00 15,1 9,1 11 6 14 8 ZO 1024,1 12
19.04.2018 20:00:00 12,5 8,9 7 4 14 8 Z 1024,4 10
19.04.2018 19:00:00 13,6 8,7 16 9 22 12 Z 1024,9 10
19.04.2018 18:00:00 15,3 9,0 21 11 22 12 Z 1025,2 10
19.04.2018 17:00:00 14,7 9,1 28 15 29 16 Z 1025,5 10
19.04.2018 16:00:00 13,7 9,2 26 14 29 16 Z 1025,9 10
19.04.2018 15:00:00 12,5 8,8 31 17 - - Z 1026,4 10
19.04.2018 14:00:00 12,7 8,7 39 21 40 21 Z 1026,2 10
19.04.2018 13:00:00 11,3 8,0 44 24 43 23 Z 1026,5 10
19.04.2018 12:00:00 11,3 7,9 48 26 47 25 Z 1026,5 10
19.04.2018 11:00:00 12,3 8,1 50 27 47 25 Z 1026,3 10
19.04.2018 10:00:00 11,5 8,1 50 27 47 25 Z 1026,3 9
19.04.2018 09:00:00 11,7 8,0 57 31 54 29 Z 1026,3 10
19.04.2018 08:00:00 11,6 7,9 55 30 - - Z 1026,2 10
19.04.2018 07:00:00 11,5 8,0 47 25 50 27 ZZO 1026,2 11
19.04.2018 06:00:00 11,3 7,7 54 29 50 27 ZZO 1026,6 10
19.04.2018 05:00:00 12,5 8,3 43 23 50 27 ZZO 1027,0 12
19.04.2018 04:00:00 11,2 8,1 47 25 50 27 ZZO 1027,4 12
19.04.2018 03:00:00 12,6 8,3 48 26 43 23 ZO 1027,9 10
19.04.2018 02:00:00 11,5 7,8 50 27 43 23 ZO 1028,2 10
19.04.2018 01:00:00 10,2 8,0 39 21 40 21 ZO 1028,5 9
19.04.2018 00:00:00 11,5 7,4 24 13 25 14 ZO 1029,0 10
18.04.2018 23:00:00 11,3 8,0 18 10 18 10 ZZO 1029,4 10
18.04.2018 22:00:00 10,6 8,1 18 10 18 10 Z 1029,6 10
18.04.2018 21:00:00 10,8 8,0 21 11 18 10 ZZW 1029,8 10
18.04.2018 20:00:00 11,3 8,2 26 14 29 16 - 1029,7 10
18.04.2018 19:00:00 11,4 8,2 29 16 32 18 ZZW 1029,6 10
18.04.2018 18:00:00 10,3 7,7 35 19 32 18 - 1029,6 10
18.04.2018 17:00:00 10,0 7,6 35 19 32 18 - 1029,8 10
18.04.2018 16:00:00 9,8 7,5 34 18 32 18 - 1029,9 10
18.04.2018 15:00:00 9,8 7,2 34 18 32 18 - 1030,0 10
18.04.2018 14:00:00 9,7 7,0 34 18 36 19 - 1030,0 10
18.04.2018 13:00:00 9,8 6,9 35 19 32 18 - 1029,7 10
18.04.2018 12:00:00 10,4 7,0 37 20 36 19 - 1029,7 10
18.04.2018 11:00:00 9,5 6,6 41 22 40 21 ZZW 1029,3 10
18.04.2018 10:00:00 9,6 6,3 46 25 47 25 ZZW 1028,7 10

tt = temperatuur
td = dauwpunt
ff = windsnelheid
fx = windstoten
dd = windrichting
ppp = luchtdruk
vv = zicht

Weerstations in de omgeving